Location: Newark
(45.5000°N, 11.4167°E)
Time: 12:36:36
(UTC+00:00)

A-11 Canister half - Pass Details

Date: 27 August 2019
Orbit: 1514 x 1686 km, 47.2° (Epoch: 15 September)

Event Time Altitude Azimuth Distance (km) Brightness Sun altitude
Rises 20:17:12 0° 286° (WNW) 4,734 12.7 -21.6°
Reaches altitude 10° 20:20:14 10° 286° (WNW) 3,770 11.9 -22.0°
Maximum altitude 20:29:52 85° 200° (SSW) 1,625 9.0 -23.2°
Enters shadow 20:34:52 35° 115° (ESE) 2,425 9.5 -23.8°
Drops below altitude 10° 20:39:52 10° 113° (ESE) 3,900 - -24.4°
Sets 20:43:02 0° 113° (ESE) 4,903 - -24.8°
